This is the latest recevied weather packets stored in our database for station/object K1BES. If no packets are shown the sender has not sent any weather packets the latest 10 day(s).
| Time | Temp. | Humidity | Pressure | Rain* | Wind** | Luminosity | Snow |
|---|---|---|---|---|---|---|---|
| 1778021692 | 25.56° C | 78% | 1016.3 hPa | 0 mm | - | 67 W/m² | - |
| 1778021388 | 25.56° C | 78% | 1016.3 hPa | 0 mm | - | 65 W/m² | - |
| 1778021085 | 25.56° C | 79% | 1016 hPa | 0 mm | - | 64 W/m² | - |
| 1778020782 | 25.56° C | 79% | 1016 hPa | 0 mm | - | 66 W/m² | - |
| 1778020479 | 25.56° C | 78% | 1016.2 hPa | 0 mm | - | 89 W/m² | - |
| 1778020175 | 25.56° C | 78% | 1016.2 hPa | 0 mm | - | 102 W/m² | - |
| 1778019872 | 25.56° C | 78% | 1016.3 hPa | 0 mm | - | 112 W/m² | - |
| 1778019568 | 26.11° C | 78% | 1016.2 hPa | 0 mm | - | 127 W/m² | - |
| 1778019265 | 26.11° C | 78% | 1016.3 hPa | 0 mm | - | 127 W/m² | - |
| 1778018962 | 26.11° C | 76% | 1016.1 hPa | 0 mm | - | 115 W/m² | - |
| 1778018659 | 26.11° C | 77% | 1016 hPa | 0 mm | - | 111 W/m² | - |
| 1778018357 | 26.11° C | 76% | 1016.2 hPa | 0 mm | - | 104 W/m² | - |
| 1778018055 | 26.11° C | 75% | 1016 hPa | 0 mm | - | 91 W/m² | - |
| 1778017752 | 26.67° C | 74% | 1016.1 hPa | 0 mm | - | 81 W/m² | - |
| 1778017450 | 26.67° C | 74% | 1016.1 hPa | 0 mm | - | 75 W/m² | - |
| 1778017147 | 26.67° C | 74% | 1016.1 hPa | 0 mm | - | 71 W/m² | - |
| 1778016845 | 26.67° C | 74% | 1016.2 hPa | 0 mm | - | 72 W/m² | - |
| 1778016540 | 26.67° C | 74% | 1016.1 hPa | 0 mm | - | 81 W/m² | - |
| 1778016238 | 27.22° C | 73% | 1016.2 hPa | 0 mm | - | 96 W/m² | - |
| 1778015934 | 27.22° C | 72% | 1016.2 hPa | 0 mm | - | 197 W/m² | - |
| 1778015631 | 27.78° C | 71% | 1016.2 hPa | 0 mm | - | 247 W/m² | - |
| 1778015328 | 27.78° C | 71% | 1016.2 hPa | 0 mm | - | 501 W/m² | - |
| 1778015025 | 27.78° C | 71% | 1016.2 hPa | 0 mm | - | 343 W/m² | - |
| 1778014721 | 27.78° C | 70% | 1016.2 hPa | 0 mm | - | 520 W/m² | - |
| 1778014420 | 27.78° C | 71% | 1016.1 hPa | 0 mm | - | 379 W/m² | - |
* Rain latest hour (hover to see other rain measurements)
** Current wind speed in m/s (hover to see current wind gust speed)